sat.trackr.live / text

‹ back to catalog

LEMUR-2-DELOITTE-3

NORAD 68471 · 2026-067BH

PAYLOAD ACTIVE UNKNOWN

§ Identity

Operator
Country
US
Launch date
2026-03-30
Launch site
AFWTR
Launch vehicle
Mass (kg)
RCS (m²)

External: N2YO · Heavens-Above · Gunter

§ Orbital elements

Epoch: 2026-05-24T20:43:59.928384Z

Period
96.56 min
Inclination
97.7563°
Eccentricity
0.0005364
Mean motion
14.91303160 rev/d
Perigee alt
590.1 km
Apogee alt
597.6 km
Semi-major
6,972.0 km
B*
4.7297e-4
RAAN
103.4137°
Arg perigee
114.5091°
Mean anomaly
245.6687°
Rev number
825

§ Raw data

LEMUR-2-DELOITTE-31 68471U 26067BH  26144.86388806  .00004658  00000+0  47297-3 0  99952 68471  97.7563 103.4137 0005364 114.5091 245.6687 14.91303160  8254

JSON: /api/v1/satellites/68471 · /tle

For live sub-satellite position, see the globe view (requires WebGL).

§ Visibility from observer

Set your observer location to see the next 7 days of passes ≥ 10°. The values pass through the URL so the page stays shareable.

No JS? Fill the form by hand. The geolocation button needs JavaScript.